Regional Weather Roundup
Issued by NWS

Home | Current Version | Previous Version | Text Only | Print | Product List | Glossary Off
Versions: 1 2 3 4 5 6 7 8 9 10 11 12 13 14 15 16 17 18 19 20 21 22 23 24 25 26 27 28 29 30 31 32 33 34 35 36 37 38 39 40 41 42 43 44 45 46 47 48 49 50

000
ASUS43 KLOT 272110
RWRIL

ILLINOIS REGIONAL WEATHER ROUNDUP
NATIONAL WEATHER SERVICE CHICAGO/ROMEOVILLE IL
400 PM CDT WED AUG 27 2014

NOTE: "FAIR" INDICATES FEW OR NO CLOUDS BELOW 12,000 FEET WITH NO
SIGNIFICANT WEATHER AND/OR OBSTRUCTIONS TO VISIBILITY.

* THESE STATIONS ARE NOT UNDER NWS QUALITY CONTROL. THEY ALSO MAY NOT
  REPORT WEATHER SUCH AS PRECIPITATION OR FOG.

ILZ001-002-007-009-015-016-024-272200-
NORTHWEST ILLINOIS

CITY           SKY/WX    TMP DP  RH WIND       PRES   REMARKS
MOLINE         CLOUDY    78  63  59 N8        30.11F HX  80
STERLING*      CLOUDY    79  63  57 N5        30.14S HX  80
SAVANNA*       CLOUDY    77  57  49 N6        30.14F
$$

ILZ003-004-008-010-011-017-018-272200-
NORTH CENTRAL ILLINOIS

CITY           SKY/WX    TMP DP  RH WIND       PRES   REMARKS
ROCKFORD       CLOUDY    77  59  53 NW8       30.15F
FREEPORT*      CLOUDY    77  64  63 N5        30.18S
ROCHELLE*      CLOUDY    77  59  54 N5        30.15S
DE KALB*       PTSUNNY   75  59  57 N6        30.15S
PERU*          PTSUNNY   81  63  54 N5        30.12F HX  82
$$

ILZ005-006-012>014-019>023-272200-
NORTHEAST ILLINOIS

CITY           SKY/WX    TMP DP  RH WIND       PRES   REMARKS
CHICAGO-OHARE  CLOUDY    76  61  59 NE13      30.13S
CHICAGO-MIDWAY PTSUNNY   77  64  64 NE12      30.12S
AURORA         PTSUNNY   79  62  56 NW5       30.13F HX  80
LANSING*       MOSUNNY   76  64  66 NE10      30.13S
JOLIET*        PTSUNNY   81  60  49 CALM      30.12S HX  81
WAUKEGAN       CLOUDY    72  64  76 NE8       30.15S
DUPAGE AIRPORT PTSUNNY   81  61  50 N7        30.12F HX  82
KANKAKEE*      PTSUNNY   81  65  58 NW3       30.11F HX  83
WHEELING       CLOUDY    74  64  71 E9        30.15S
MORRIS*        PTSUNNY   82  65  57 CALM      30.11F HX  84
ROMEOVILLE*    PTSUNNY   80  61  52 N3        30.12S HX  81
NORTHERLY ISL    N/A     72  64  76 NE9         N/A
$$

LMZ740>746-272200-
SOUTHERN LAKE MICHIGAN

STATION/POSITION SKY/WX   TEMP    WIND        PRES    VSBY  WAVE
                          AIR SEA DIR/SP/G                  HT/PER
                          (F)     (DEG/KT/KT) (MB)    (MI)  (FT/S)
SOUTHERN BUOY              68 71  350/  6/  8 1021.2F         1
WAUKEGAN HARBOR            70      50/  9/ 11   N/A
HARRISON CRIB              70      30/ 11/ 12   N/A
BURNHAM HARBOR             72      30/  7/ 11   N/A
CALUMET HARBOR             72      10/  9/ 12 1019.4S
MICHIGAN CITY              69     360/ 15/ 17   N/A
MICHIGAN CITY 6N           71 74   20/ 12/ 14   N/A           2/ 2
ST. JOSEPH                 71 74  360/ 12/ 16   N/A           2/ 3
$$

ILZ025>027-034>036-040-047-049-050-058-095>099-272200-
WEST-CENTRAL ILLINOIS

CITY           SKY/WX    TMP DP  RH WIND       PRES   REMARKS
QUINCY         PTSUNNY   82  73  74 NE8       30.09F HX  87
GALESBURG*     CLOUDY    80  71  71 N9        30.10F HX  84
MACOMB*        CLOUDY    80  69  70 NE7       30.11F HX  82
JACKSONVILLE*  PTSUNNY   79  73  79 N5        30.10F HX  83
PITTSFIELD*    MOSUNNY   85  72  65 N8        30.09F HX  90
$$

ILZ028>032-037-038-041>044-048-051>054-059>061-272200-
CENTRAL ILLINOIS

CITY           SKY/WX    TMP DP  RH WIND       PRES   REMARKS
PONTIAC        PTSUNNY   82  70  65 N6        30.12R HX  86
DECATUR        PTSUNNY   84  74  71 N8        30.09S HX  91
PEORIA         PTSUNNY   83  69  62 N6        30.11F HX  86
LACON*         PTSUNNY   81  66  61 N5        30.11S HX  83
LINCOLN*       CLOUDY    83  72  69 N3        30.06F HX  88
SPRINGFIELD    TSTM      77  70  79 W8        30.10S
TAYLORVILLE    CLOUDY    82  73  74 N6        30.08F HX  88
$$

ILZ033-039-045-046-055>057-062-063-272200-
EAST-CENTRAL ILLINOIS

CITY           SKY/WX    TMP DP  RH WIND       PRES   REMARKS
CHAMPAIGN      PTSUNNY   86  72  62 NW8       30.08F HX  92
DANVILLE*      PTSUNNY   83  73  70 N5        30.06S HAZE    HX  89
RANTOUL*       PTSUNNY   86  69  56 N9        30.10S HX  89
MATTOON        MOSUNNY   87  73  62 CALM      30.06F HX  94
PARIS*         MOSUNNY   85  74  69 N5        30.07F THUNDER HX  93
$$

ILZ079-100>102-272200-
SOUTHWEST ILLINOIS

CITY           SKY/WX    TMP DP  RH WIND       PRES   REMARKS
ALTON          PTSUNNY   90  73  58 VRB3      30.04F HX  98
BELLEVILLE     MOSUNNY   92  76  59 CALM      30.02F HX 103
CAHOKIA*       CLOUDY    90  75  62 NE3       30.03  HX 100
SPARTA*        MOSUNNY   90  75  60 CALM      30.04F HX 100
$$

ILZ064>066-069>071-074>076-080>082-084>086-088>090-092>094-272200-
SOUTH-CENTRAL ILLINOIS

CITY           SKY/WX    TMP DP  RH WIND       PRES   REMARKS
CARBONDALE     MOSUNNY   92  72  51 E5        30.03F HX  99
CAIRO*         SUNNY     94  72  49 NE6       30.04F HX 102
EFFINGHAM*     PTSUNNY   89  71  54 CALM      30.06F HX  95
MARION         MOSUNNY   95  72  46 E8        30.04F HX 103
MT. VERNON     MOSUNNY   88  75  66 SW8       30.05F THUNDER HX  97
SALEM*         SUNNY     91  76  59 W5        30.05F HX 103
METROPOLIS*    SUNNY     92  74  54 CALM      30.03F HX 102
$$

ILZ067-068-072-073-078-083-087-091-272200-
SOUTHEAST ILLINOIS

CITY           SKY/WX    TMP DP  RH WIND       PRES   REMARKS
LAWRENCEVILLE  SUNNY     91  73  55 NW7       30.05F HX  99
FLORA*         SUNNY     90  74  59 W7        30.05F HX  98
FAIRFIELD*     MOSUNNY   90  81  74 CALM      30.04F HX 108
HARRISBURG*    SUNNY     92  69  47 N3        30.05F HX  97
ROBINSON*      SUNNY     91  75  60 NW6       30.06F HX 101
CARMI*         SUNNY     93  75  55 N3        30.03F HX 104
$$

ABBREVIATIONS USED IN REMARKS
   TC - TEMPERATURE IN CELSIUS
  WCI - WIND CHILL INDEX
   HX - HEAT INDEX
  VSB - VISIBILITY
$$



USA.gov is the U.S. government's official web portal to all federal, state and local government web resources and services.